Погода в Кандалакше

Погода в Кандалакше : погода сейчас, прогноз погоды и архив. Всё, что Вы хотите узнать о погоде в Кандалакше!

Хотите узнать прогноз погоды в Кандалакше? Тогда Вам сюда: Погода в Кандалакше

Поиск расширенной информации на нашем сайте:

Полезная информация: Сварочные технологии сварочное оборудование.

Другие новости

Новости СМИ2

Главная страница сайта

Новости сайта

03.07.2017

Напоминаем, что на нашем специализированном сайте Метеоцентр.Азия вы можете получить высокодетализированные автоматические прогнозы погоды по пунктам России, СНГ и мира в авиационном формате (включающие направление и скорость ветра, видимость, явления погоды, количество и форму облачности, нижнюю и верхнюю границу облачности).

Рекомендуем: Мы предлагаем Вам cкачать программу исправления ошибок.

Погода в Кандалакше - сегодня

Время (UTC), дата Ветер
(°,м/с) 
Видим.   Явления Облачность Т
(°С)
Тd
(°С)
f(%) Тe
(°С)
Pmin
(гПа)
dP
(гПа)
Po
(мм)
O2
(г/м3)
Тmin Tmax R s Состояние
почвы
09 16.04.18 170 (Ю) 2-4  20000 м    9/3 600 м средняя, верхняя 
[Sc|Ac lent|Cc]
+3.1 -2.4 67 +3  1018.4  -0.4  761  304           
09 17.04.18 180 (Ю) 2-4  20000 м    ясно 
+5.2 -3.4 54 +5  1019.7  0.8  762  302           
12 17.04.18 180 (Ю) 2-5  20000 м    ясно 
+4.5 -3.8 55 +4  1019.8  0.1  762  303           
15 17.04.18 160 (Ю) 3-4  20000 м    ясно 
+3.8 -4 57 +3  1019  -0.8  762  303           
21 17.04.18 270 (З) 1-2  10 км    ясно 
-2.8 -4.2 90 -2  1019  0.1  762  311           
00 18.04.18 020 (С) 2-2  10 км    ясно 
-4 -4.8 94 -5  1018.7  -0.3  762  312           
09 18.04.18 170 (Ю) 1-3  20000 м    3/0 средняя 
[Ac lent]
+9.6 -2.2 44 +11  1016.7  -0.6  760  296           
21 18.04.18 020 (С) 1-2  10 км    10/10 600 м 
[Sc]
+4.6 -1.3 66 +5  1016.1  0.2  760  301           
00 19.04.18 020 (С) 10 км    9/9 600 м 
[Sc]
+1.4 -1.5 81 +2  1016.3  0.1  760  305           
09 19.04.18 360 (С) 3-7  10 км    9/9 600 м 
[Sc]
+3.9 -3.4 59 +3  1020.5  2.2  763  304           
21 19.04.18 330 (СЗ) 1-2  0050 м    3/0 средняя, верхняя 
[Ac trans|Cs]
-3.7 -6.6 80 -3  1023.9  0.1  765  313           
09 20.04.18 150 (ЮВ) 4-8  20000 м    10/0 средняя 
[As op]
-0.5 -5.8 67 -3  1016.6  -2.9  760  307           
03 21.04.18 100 (В) 1-2  10 км  слаб. ливневой снег  9/5 300 м кучево-дожд., средняя 
[Cb cap|Ac As]
-3.8 -6.9 79 -3  1005.9  -1.4  752  308  -3.8    0.9     
21 21.04.18 330 (СЗ) 1-2  10 км    9/8 300 м кучево-дожд., средняя 
[Cb cap|Ac As]
-2.6 -7.1 71 -2  1009.5  1.1  755  308           
09 22.04.18 160 (Ю) 2-4  20000 м    3/3 600 м 
[Cu Sc]
+1.9 -10.1 41 +1  1013.7  0.5  758  304           
21 22.04.18 360 (С) 1-1  10 км    9/4 600 м средняя 
[Sc|Ac trans]
-2.8 -7 73 -2  1014.4  0.5  758  309           
09 23.04.18 180 (Ю) 1-3  20000 м    9/9 300 м кучево-дожд. 
[Cb cap]
+3.5 -3.5 60 +4  1014.3  -0.2  758  302           
21 23.04.18 170 (Ю) 2-4  10 км    9/8 600 м средняя, верхняя 
[Sc|Ac trans|Ci sp]
+1.9 -3 70 +1  1009.8  -1.2  755  302           
09 24.04.18 160 (Ю) 3-7  20000 м    9/1 600 м средняя, верхняя 
[Sc|Ac lent|Cc]
+6.4 -2.1 55 +5  1003.2  -2  750  296           
21 24.04.18 150 (ЮВ) 2-5  10 км    9/8 300 м кучево-дожд., средняя 
[Cb cap|Ac As]
+3.9 -3.3 59 +3  997  -1  745  296           
03 25.04.18 150 (ЮВ) 3-6  20000 м  осадки на расстоянии  9/8 300 м кучево-дожд., средняя 
[Cb cap|Ac As]
+2.6 -1.9 72 +1  994.3  -1.1  743  297  +2.4         
06 25.04.18 150 (ЮВ) 3-7  20000 м    10/6 600 м средняя 
[Sc|Ac und]
+2.6 -1 77 +1  993.8  -0.5  743  297  +2.4      10  неравномерный
мокрый или
старый снег
100% 
09 25.04.18 160 (Ю) 4-7  20000 м    9/8 600 м средняя 
[Sc|Ac As]
+4.1 +0.2 76 +2  994  0.2  743  295           
21 25.04.18 тихо () -2  10 км    10/4 600 м средняя 
[Sc|As op]
+2.1 +0.4 88 +2  993.2  743  297           
03 26.04.18 180 (Ю) 2-3  10 км  слаб. дождь  10/10 300 м 
[Frnb|Ns]
+1.5 +1.2 98 +1  992.3  -0.6  742  297  +1.5    0.8     
Время (UTC), дата Ветер
(°,м/с) 
Видим.   Явления Облачность Т
(°С)
Тd
(°С)
f(%) Тe
(°С)
Pmin
(гПа)
dP
(гПа)
Po
(мм)
O2
(г/м3)
Тmin Tmax R s Состояние
почвы

Для получения пояснительной информации подведите курсор к названию столбца.

ПОГОДА в Кандалакше - архив

Всё, что Вы хотите узнать о погоде в Кандалакше - удобно и подробно!

Выберите нужную дату (начиная с 1 января 2015* года) и нажмите кнопку "Найти".
Будут отображены архивные сводки погоды по пункту Кандалакша, начиная с указанной даты.


Отображать данные в формате CSV (для использования в таблицах Excel)


Внимание! Наш архив погоды предназначен исключительно для личного некоммерческого использования в познавательных целях. Если Вам необходимы официальные справки о состоянии погоды (для производственных, юридических, коммерческих и т.п. целей), обращайтесь в органы Росгидромета.

*Примечание: данная дата относится к архиву по метеостанциям СССР (Россия, СНГ, Балтия).
Архив по метеостанциям Зарубежной Европы и Азии (кроме Китая) хранится 10 дней, по другим регионам земного шара (Китай, Африка, Америка, Австралия, Океания) - 1 день.

Кандалакша - район местоположения метеостанции


Название, широта, долгота, высота метеостанции:
Кандалакша 67.2°ш. 32.3°д. 25 м над ур. моря [Российская Федерация]

Дополнительная информация

В oтличие oт бoльшинства пoгoдных сайтoв мы публикуем пoдрoбную метеoинфoрмацию в детальнoм прoфессиoнальнoм фoрмате.

Характеристики температуры и влажнoсти вoздуха измеряются на высoте 2 м в тени вдали oт зданий и деревьев.
Скoрoсть ветра измеряется на высoте 10 м (на урoвне рoста челoвека скoрoсть ветра ниже в 1.5-2 раза). Если метеoстанция нахoдится в гoрoде или в лесу, тo скoрoсть ветра занижена на 2-4 м/с пo сравнению с oткрытым местoм. Скoрoсть ветра над акватoриями крупных рек и oзёр, а также на вершинах хoлмoв на 2-5 м/с выше, чем в oбычных услoвиях.
Атмoсфернoе давление в разных тoчках местнoсти мoжет значительнo oтличаться oт давления на метеoстанции, в зависимoсти oт услoвий рельефа (при пoдъёме на 10 м давление пoнижается примернo на 1 мм рт.ст.).